Regional Weather Roundup
Issued by NWS Newport/Morehead, NC

Current Version | Previous Version | Graphics & Text | Print | Product List | Glossary Off
Versions: 1 2 3 4 5 6 7 8 9 10 11 12 13 14 15 16 17 18 19 20 21 22 23 24 25 26 27 28 29 30 31 32 33 34 35 36 37 38 39 40 41 42 43 44 45 46 47 48 49 50

317
ASUS42 KMHX 091824
RWRMHX
WEATHER ROUNDUP FOR EASTERN NORTH CAROLINA
NATIONAL WEATHER SERVICE NEWPORT/MOREHEAD CITY NC
100 PM EST FRI DEC 09 2016

NOTE: "FAIR" INDICATES FEW OR NO CLOUDS BELOW 12,000 FEET
WITH NO SIGNIFICANT WEATHER AND/OR OBSTRUCTIONS TO VISIBILITY

NCZ015>017-031-032-045>047-102-103-091900-
NORTH COAST

CITY           SKY/WX    TMP DP  RH WIND       PRES   REMARKS
EDENTON        SUNNY     43  19  38 N15       30.34F
ELIZABETH CITY SUNNY     42  18  37 NW9       30.33S
KITTY HAWK     CLEAR     41  23  48 N9        30.30S
MANTEO         SUNNY     40  19  42 NW8       30.31F

$$

NCZ045>047-081-094-103-104-091900-
CENTRAL COAST

CITY           SKY/WX    TMP DP  RH WIND       PRES   REMARKS
FRISCO         SUNNY     43  23  45 N10       30.31S

$$

NCZ095-097-098-100-101-091900-
SOUTHERN COAST

CITY           SKY/WX    TMP DP  RH WIND       PRES   REMARKS
BEAUFORT       SUNNY     45  21  38 N12       30.33F
CEDAR ISLAND   NOT AVBL
JACKSONVILLE   SUNNY     43  19  38 N13G18    30.34F
PINEY ISLAND   CLEAR    N/A N/A N/A N14       30.33S
WILMINGTON     SUNNY     44  20  38 N10G17    30.35F


$$

NCZ011>013-027>030-043-044-078>080-089-090>093-098-091900-
COASTAL PLAIN

CITY           SKY/WX    TMP DP  RH WIND       PRES   REMARKS
AHOSKIE        SUNNY     40  17  40 NW7       30.36S
CLINTON        SUNNY     42  20  41 N6        30.38F
ELIZABETHTOWN  SUNNY     43  20  39 N7        30.37S
GOLDSBORO      SUNNY     42  16  35 NW8       30.35F
GREENVILLE     SUNNY     41  19  42 NW10G16   30.36F
HAVELOCK       SUNNY     44  20  38 N14       30.34F
KENANSVILLE    SUNNY     43  19  39 NW12      30.36F
KINSTON        SUNNY     43  18  36 NW7       30.37F
NEW BERN       SUNNY     43  20  39 NW10G17   30.35F
RICHLANDS      SUNNY     42  20  41 N8        30.35F
ROCKY MOUNT    SUNNY     40  18  41 NW14G21   30.37F
WASHINGTON     SUNNY     42  17  36 N7        30.35F
WHITEVILLE     SUNNY     44  20  38 N6        30.37S

$$

AMZ130-135-150-152-154-156-158-170-250-252-270-ANZ085-086-088-633-658-670-091900-
MARINE OBSERVATIONS

STATION/POSITION TIME  TEMP    WIND        PRES    WAVE   SWELL
                       AIR SEA DIR/SP/G            HT/PER HT/PER
                 (UTC) (F)     (DEG/KT/KT) (MB)    (FT/S) (FT/S)
CHESAPEAKE LIGHT NOT AVBL
64 E VA BEACH    1750   40 58  330/ 17/ 23 1024.5    6/ 7   2/11
DUCK             1800   38 53  320/ 14/ 21 1025.7
2 E DUCK         NOT AVBL
OREGON INLET     1800          310/ 12/ 19 1026.1
13E OREGON INLT  NOT AVBL
HATTERAS CG      1800   39 54  330/ 13/ 17 1025.9
DIAMOND BUOY     1750   42 76  340/ 17/ 21 1025.7    5/ 8   3/ 8
CAPE LOOKOUT     1800   41     330/ 11/ 14 1026.7
BEAUFORT LAB     1800   42 52  350/ 11/ 15 1025.9
30 SE NEW RVR IN 1808   43 69  350/ 12/ 17 1027.1
30 SE NEW RVR IN NOT AVBL
27 SE WRIGHTSVLE 1808   43 69  340/ 12/ 19 1027.0
5 SE WRIGHTSVLE  1808   41 61  330/ 12/ 19 1027.3
225 S CAPE HAT   1750   61 73  350/ 17/ 23 1022.6    6/ 7   2/12
41 SE CHARLESTON 1750   48 72  360/ 16/ 21 1027.3    5/ 7   2/11

$$




USA.gov is the U.S. government's official web portal to all federal, state and local government web resources and services.